| time (UTC) | temp C | wind direction | speed KPH | gust KPH | rain 1hr cm | rain 24hr cm | rain mn cm | humidity % | barometer mb |
| 20260507134542 | 13 | 124 | 1.6 | 20.9 | 0.00 | 0.36 | 0.13 | 72 | 1005.4 |
| 20260507134041 | 13 | 25 | 4.8 | 20.9 | 0.00 | 0.36 | 0.13 | 71 | 1005.3 |
| 20260507133541 | 13 | 87 | 1.6 | 14.5 | 0.00 | 0.36 | 0.13 | 73 | 1005.3 |
| 20260507133041 | 13 | 41 | 3.2 | 14.5 | 0.00 | 0.36 | 0.13 | 74 | 1005.1 |
| 20260507132540 | 13 | 5 | 3.2 | 17.7 | 0.00 | 0.36 | 0.13 | 74 | 1005.1 |
| 20260507132040 | 13 | 49 | 3.2 | 14.5 | 0.00 | 0.36 | 0.13 | 74 | 1005.1 |
| 20260507131554 | 13 | 15 | 3.2 | 14.5 | 0.00 | 0.36 | 0.13 | 74 | 1005.1 |
| 20260507131041 | 13 | 24 | 4.8 | 14.5 | 0.00 | 0.36 | 0.13 | 75 | 1005.1 |
| 20260507130540 | 13 | 41 | 1.6 | 12.9 | 0.00 | 0.36 | 0.13 | 76 | 1005.0 |
| 20260507130041 | 13 | 39 | 4.8 | 16.1 | 0.00 | 0.36 | 0.13 | 76 | 1005.2 |
| 20260507125537 | 13 | 307 | 3.2 | 16.1 | 0.00 | 0.36 | 0.13 | 77 | 1005.2 |
| 20260507125036 | 13 | 70 | 3.2 | 12.9 | 0.00 | 0.36 | 0.13 | 78 | 1005.2 |
| 20260507124536 | 13 | 70 | 1.6 | 14.5 | 0.00 | 0.36 | 0.13 | 79 | 1005.3 |
| 20260507124035 | 13 | 9 | 4.8 | 14.5 | 0.00 | 0.36 | 0.13 | 79 | 1005.2 |
| 20260507123535 | 13 | 52 | 3.2 | 11.3 | 0.00 | 0.36 | 0.13 | 80 | 1005.1 |
| 20260507123035 | 13 | 37 | 3.2 | 11.3 | 0.00 | 0.36 | 0.13 | 80 | 1005.0 |
| 20260507122533 | 13 | 348 | 0.0 | 11.3 | 0.00 | 0.36 | 0.13 | 81 | 1005.0 |
| 20260507122034 | 13 | 30 | 3.2 | 11.3 | 0.00 | 0.36 | 0.13 | 81 | 1005.0 |
| 20260507121533 | 13 | 18 | 1.6 | 8.0 | 0.00 | 0.36 | 0.13 | 81 | 1005.0 |
| 20260507121033 | 13 | 46 | 0.0 | 3.2 | 0.00 | 0.36 | 0.13 | 83 | 1004.8 |
| 20260507120531 | 12 | 84 | 0.0 | 6.4 | 0.00 | 0.36 | 0.13 | 83 | 1004.6 |
| 20260507120031 | 12 | 30 | 0.0 | 8.0 | 0.00 | 0.36 | 0.13 | 83 | 1004.5 |
| 20260507115532 | 12 | 61 | 1.6 | 9.7 | 0.00 | 0.36 | 0.13 | 83 | 1004.5 |
| 20260507115035 | 12 | 49 | 1.6 | 6.4 | 0.00 | 0.36 | 0.13 | 83 | 1004.6 |
| 20260507114630 | 12 | 4 | 0.0 | 6.4 | 0.00 | 0.36 | 0.13 | 84 | 1004.7 |
| 20260507114030 | 12 | 51 | 0.0 | 9.7 | 0.00 | 0.36 | 0.13 | 84 | 1004.7 |
| 20260507113532 | 12 | 40 | 1.6 | 9.7 | 0.00 | 0.36 | 0.13 | 84 | 1004.6 |
| 20260507113030 | 12 | 57 | 0.0 | 8.0 | 0.00 | 0.36 | 0.13 | 84 | 1004.6 |
| 20260507112531 | 12 | 46 | 0.0 | 9.7 | 0.00 | 0.36 | 0.13 | 84 | 1004.4 |
| 20260507112029 | 12 | 62 | 3.2 | 11.3 | 0.00 | 0.36 | 0.13 | 84 | 1004.3 |
| 20260507111530 | 12 | 57 | 1.6 | 11.3 | 0.00 | 0.36 | 0.13 | 84 | 1004.4 |
| 20260507111027 | 12 | 49 | 0.0 | 8.0 | 0.00 | 0.36 | 0.13 | 85 | 1004.3 |
| 20260507110527 | 12 | 62 | 1.6 | 9.7 | 0.00 | 0.36 | 0.13 | 85 | 1004.5 |
| 20260507110027 | 12 | 66 | 1.6 | 9.7 | 0.00 | 0.36 | 0.13 | 86 | 1004.6 |
| 20260507105527 | 12 | 356 | 0.0 | 4.8 | 0.00 | 0.36 | 0.13 | 86 | 1004.5 |
| 20260507105026 | 12 | 281 | 0.0 | 4.8 | 0.00 | 0.36 | 0.13 | 86 | 1004.4 |
| 20260507104527 | 12 | 322 | 0.0 | 4.8 | 0.00 | 0.36 | 0.13 | 86 | 1004.4 |
| 20260507104027 | 12 | 75 | 0.0 | 9.7 | 0.00 | 0.36 | 0.13 | 86 | 1004.4 |
| 20260507103525 | 12 | 37 | 3.2 | 9.7 | 0.00 | 0.36 | 0.13 | 86 | 1004.4 |
| 20260507103030 | 12 | 15 | 1.6 | 8.0 | 0.00 | 0.36 | 0.13 | 86 | 1004.2 |
| 20260507102524 | 12 | 58 | 0.0 | 8.0 | 0.00 | 0.36 | 0.13 | 86 | 1004.2 |
| 20260507102024 | 12 | 38 | 1.6 | 8.0 | 0.00 | 0.36 | 0.13 | 86 | 1003.9 |
| 20260507101524 | 12 | 60 | 1.6 | 8.0 | 0.00 | 0.36 | 0.13 | 86 | 1003.9 |
| 20260507101025 | 12 | 45 | 0.0 | 8.0 | 0.00 | 0.36 | 0.13 | 86 | 1004.0 |
| 20260507100526 | 12 | 54 | 1.6 | 9.7 | 0.00 | 0.36 | 0.13 | 86 | 1003.8 |
| 20260507100032 | 12 | 53 | 1.6 | 4.8 | 0.00 | 0.36 | 0.13 | 86 | 1004.0 |
| 20260507095523 | 12 | 344 | 0.0 | 4.8 | 0.00 | 0.36 | 0.13 | 86 | 1004.2 |
| 20260507095023 | 12 | 70 | 0.0 | 6.4 | 0.00 | 0.36 | 0.13 | 86 | 1004.2 |
| 20260507094526 | 12 | 57 | 1.6 | 6.4 | 0.00 | 0.36 | 0.13 | 86 | 1004.1 |
| 20260507094021 | 12 | 43 | 0.0 | 4.8 | 0.00 | 0.36 | 0.13 | 86 | 1004.1 |
| 20260507093522 | 12 | 356 | 0.0 | 6.4 | 0.00 | 0.36 | 0.13 | 86 | 1003.9 |
| 20260507093021 | 12 | 34 | 1.6 | 8.0 | 0.00 | 0.36 | 0.13 | 85 | 1004.0 |
| 20260507092521 | 12 | 49 | 1.6 | 8.0 | 0.00 | 0.36 | 0.13 | 86 | 1003.9 |
| 20260507092020 | 12 | 56 | 1.6 | 6.4 | 0.00 | 0.36 | 0.13 | 86 | 1004.1 |
| 20260507091526 | 12 | 264 | 0.0 | 4.8 | 0.00 | 0.36 | 0.13 | 86 | 1004.1 |
| 20260507091020 | 12 | 31 | 0.0 | 8.0 | 0.03 | 0.36 | 0.13 | 87 | 1003.9 |
| 20260507090519 | 12 | 8 | 0.0 | 6.4 | 0.03 | 0.36 | 0.13 | 87 | 1003.8 |
| 20260507090022 | 12 | 350 | 1.6 | 6.4 | 0.03 | 0.36 | 0.13 | 87 | 1003.6 |
| 20260507085518 | 12 | 48 | 0.0 | 8.0 | 0.03 | 0.36 | 0.13 | 87 | 1003.5 |
| 20260507085019 | 12 | 39 | 1.6 | 8.0 | 0.03 | 0.36 | 0.13 | 87 | 1003.4 |
| 20260507084519 | 12 | 45 | 0.0 | 3.2 | 0.03 | 0.36 | 0.13 | 87 | 1003.6 |
| 20260507084017 | 12 | 23 | 0.0 | 3.2 | 0.03 | 0.36 | 0.13 | 87 | 1003.8 |
| 20260507083520 | 12 | 19 | 0.0 | 4.8 | 0.03 | 0.36 | 0.13 | 87 | 1003.7 |
| 20260507083021 | 12 | 46 | 0.0 | 4.8 | 0.03 | 0.36 | 0.13 | 86 | 1003.7 |
| 20260507082516 | 12 | 45 | 0.0 | 4.8 | 0.03 | 0.36 | 0.13 | 86 | 1003.9 |
| 20260507082015 | 12 | 298 | 0.0 | 9.7 | 0.03 | 0.36 | 0.13 | 86 | 1003.9 |
| 20260507081515 | 12 | 303 | 1.6 | 9.7 | 0.03 | 0.36 | 0.13 | 85 | 1004.3 |
| 20260507081014 | 12 | 299 | 1.6 | 16.1 | 0.00 | 0.33 | 0.10 | 85 | 1004.1 |
| 20260507080512 | 12 | 41 | 3.2 | 16.1 | 0.00 | 0.33 | 0.10 | 85 | 1003.7 |
| 20260507080011 | 12 | 51 | 4.8 | 19.3 | 0.00 | 0.33 | 0.10 | 85 | 1003.2 |
| 20260507075509 | 12 | 30 | 6.4 | 19.3 | 0.00 | 0.33 | 0.10 | 86 | 1003.1 |
| 20260507075009 | 13 | 38 | 3.2 | 12.9 | 0.00 | 0.33 | 0.10 | 87 | 1003.2 |
| 20260507074510 | 13 | 23 | 1.6 | 14.5 | 0.00 | 0.33 | 0.10 | 88 | 1003.2 |
| 20260507074012 | 13 | 60 | 3.2 | 9.7 | 0.00 | 0.33 | 0.10 | 88 | 1003.1 |
| 20260507073511 | 13 | 313 | 3.2 | 11.3 | 0.00 | 0.33 | 0.10 | 88 | 1003.2 |
| 20260507073008 | 13 | 347 | 1.6 | 11.3 | 0.00 | 0.33 | 0.10 | 89 | 1003.0 |
| 20260507072507 | 13 | 53 | 1.6 | 9.7 | 0.00 | 0.33 | 0.10 | 89 | 1002.9 |
| 20260507072008 | 13 | 8 | 0.0 | 9.7 | 0.00 | 0.33 | 0.10 | 89 | 1002.9 |
| 20260507071519 | 13 | 58 | 3.2 | 14.5 | 0.00 | 0.33 | 0.10 | 89 | 1003.0 |
| 20260507071006 | 13 | 11 | 3.2 | 14.5 | 0.00 | 0.33 | 0.10 | 89 | 1003.0 |
| 20260507070507 | 13 | 75 | 0.0 | 8.0 | 0.00 | 0.33 | 0.10 | 89 | 1003.1 |
| 20260507070009 | 13 | 338 | 1.6 | 11.3 | 0.00 | 0.33 | 0.10 | 88 | 1003.2 |
| 20260507065505 | 13 | 42 | 3.2 | 14.5 | 0.00 | 0.33 | 0.10 | 88 | 1003.0 |
| 20260507065004 | 13 | 60 | 4.8 | 16.1 | 0.00 | 0.33 | 0.10 | 89 | 1003.0 |
| 20260507064501 | 13 | 65 | 6.4 | 17.7 | 0.00 | 0.33 | 0.10 | 89 | 1003.0 |
| 20260507064003 | 13 | 65 | 3.2 | 19.3 | 0.03 | 0.33 | 0.10 | 89 | 1003.2 |
| 20260507063501 | 13 | 64 | 4.8 | 19.3 | 0.03 | 0.33 | 0.10 | 90 | 1003.4 |
| 20260507063103 | 13 | 63 | 0.0 | 14.5 | 0.03 | 0.33 | 0.10 | 90 | 1003.4 |
| 20260507062559 | 13 | 301 | 1.6 | 12.9 | 0.03 | 0.33 | 0.10 | 90 | 1003.5 |
| 20260507062058 | 13 | 27 | 1.6 | 14.5 | 0.05 | 0.33 | 0.10 | 91 | 1003.1 |
| 20260507061600 | 13 | 290 | 3.2 | 14.5 | 0.05 | 0.33 | 0.10 | 91 | 1002.8 |
| 20260507061056 | 13 | 60 | 3.2 | 11.3 | 0.05 | 0.33 | 0.10 | 90 | 1002.5 |
| 20260507060554 | 13 | 35 | 0.0 | 9.7 | 0.05 | 0.33 | 0.10 | 90 | 1002.1 |
| 20260507060056 | 13 | 42 | 3.2 | 9.7 | 0.05 | 0.33 | 0.10 | 90 | 1001.6 |
| 20260507055555 | 13 | 51 | 1.6 | 9.7 | 0.05 | 0.33 | 0.10 | 90 | 1001.6 |
| 20260507055052 | 13 | 56 | 1.6 | 11.3 | 0.05 | 0.33 | 0.10 | 90 | 1001.5 |
| 20260507054552 | 14 | 75 | 3.2 | 11.3 | 0.08 | 0.33 | 0.10 | 89 | 1001.5 |
| 20260507054051 | 14 | 59 | 3.2 | 14.5 | 0.05 | 0.30 | 0.08 | 89 | 1001.7 |
| 20260507053551 | 14 | 65 | 4.8 | 16.1 | 0.05 | 0.30 | 0.08 | 89 | 1002.0 |
| 20260507053114 | 15 | 52 | 6.4 | 16.1 | 0.08 | 0.30 | 0.08 | 89 | 1002.4 |
| 20260507052546 | 15 | 59 | 4.8 | 11.3 | 0.08 | 0.30 | 0.08 | 89 | 1002.6 |
| 20260507052045 | 15 | 48 | 1.6 | 12.9 | 0.05 | 0.28 | 0.05 | 89 | 1002.8 |
| 20260507051545 | 15 | 65 | 3.2 | 16.1 | 0.05 | 0.28 | 0.05 | 89 | 1002.9 |
| 20260507051042 | 16 | 6 | 6.4 | 16.1 | 0.05 | 0.28 | 0.05 | 88 | 1003.0 |
| 20260507050540 | 16 | 64 | 0.0 | 14.5 | 0.05 | 0.28 | 0.05 | 88 | 1003.1 |
| 20260507050043 | 16 | 345 | 0.0 | 12.9 | 0.05 | 0.28 | 0.05 | 89 | 1003.0 |
| 20260507045540 | 16 | 68 | 3.2 | 16.1 | 0.05 | 0.28 | 0.05 | 88 | 1003.0 |
| 20260507045035 | 17 | 14 | 3.2 | 9.7 | 0.05 | 0.28 | 0.05 | 88 | 1002.8 |
| 20260507044536 | 17 | 74 | 6.4 | 17.7 | 0.03 | 0.25 | 0.03 | 88 | 1002.4 |
| 20260507044035 | 17 | 51 | 4.8 | 17.7 | 0.03 | 0.25 | 0.03 | 87 | 1002.4 |
| 20260507043533 | 17 | 290 | 4.8 | 11.3 | 0.03 | 0.25 | 0.03 | 88 | 1002.8 |
| 20260507043035 | 18 | 294 | 1.6 | 4.8 | 0.00 | 0.23 | 0.00 | 88 | 1002.7 |
| 20260507042533 | 18 | 55 | 0.0 | 4.8 | 0.00 | 0.23 | 0.00 | 87 | 1002.3 |
| 20260507042030 | 18 | 259 | 0.0 | 1.6 | 0.00 | 0.23 | 0.00 | 87 | 1002.3 |
| 20260507041530 | 18 | 350 | 0.0 | 4.8 | 0.00 | 0.23 | 0.00 | 87 | 1002.0 |
| 20260507041029 | 18 | 348 | 0.0 | 4.8 | 0.00 | 0.23 | 0.00 | 87 | 1002.1 |
| 20260507040527 | 18 | 356 | 0.0 | 1.6 | 0.00 | 0.23 | 0.00 | 86 | 1002.3 |
| 20260507040029 | 18 | 274 | 0.0 | 3.2 | 0.00 | 0.23 | 0.00 | 86 | 1002.4 |
| 20260507035527 | 18 | 273 | 0.0 | 3.2 | 0.00 | 0.23 | 0.23 | 86 | 1002.2 |
| 20260507035027 | 18 | 245 | 0.0 | 0.0 | 0.00 | 0.23 | 0.23 | 86 | 1002.1 |
| 20260507034535 | 18 | 245 | 0.0 | 0.0 | 0.00 | 0.23 | 0.23 | 85 | 1002.1 |
| 20260507034026 | 18 | 245 | 0.0 | 0.0 | 0.00 | 0.23 | 0.23 | 85 | 1002.0 |
| 20260507033526 | 18 | 245 | 0.0 | 0.0 | 0.00 | 0.23 | 0.23 | 85 | 1001.8 |
| 20260507033038 | 18 | 245 | 0.0 | 0.0 | 0.00 | 0.23 | 0.23 | 85 | 1001.7 |
| 20260507032526 | 18 | 245 | 0.0 | 0.0 | 0.00 | 0.23 | 0.23 | 84 | 1001.7 |
| 20260507032026 | 18 | 245 | 0.0 | 0.0 | 0.00 | 0.23 | 0.23 | 84 | 1001.8 |
| 20260507031525 | 18 | 246 | 0.0 | 0.0 | 0.00 | 0.23 | 0.23 | 85 | 1002.0 |
| 20260507031026 | 18 | 246 | 0.0 | 1.6 | 0.00 | 0.23 | 0.23 | 85 | 1002.3 |
| 20260507030525 | 18 | 237 | 0.0 | 3.2 | 0.00 | 0.23 | 0.23 | 85 | 1002.2 |
| 20260507030027 | 18 | 298 | 0.0 | 3.2 | 0.00 | 0.23 | 0.23 | 85 | 1002.1 |
| 20260507025524 | 18 | 257 | 0.0 | 1.6 | 0.00 | 0.23 | 0.23 | 85 | 1001.8 |
| 20260507025025 | 18 | 257 | 0.0 | 1.6 | 0.00 | 0.23 | 0.23 | 85 | 1001.9 |
| 20260507024524 | 18 | 257 | 0.0 | 1.6 | 0.00 | 0.23 | 0.23 | 85 | 1001.9 |
| 20260507024027 | 18 | 255 | 0.0 | 1.6 | 0.00 | 0.23 | 0.23 | 84 | 1001.9 |
| 20260507023524 | 18 | 223 | 0.0 | 1.6 | 0.00 | 0.23 | 0.23 | 84 | 1001.7 |
| 20260507023027 | 18 | 175 | 0.0 | 0.0 | 0.00 | 0.23 | 0.23 | 84 | 1001.3 |
| 20260507022524 | 18 | 175 | 0.0 | 1.6 | 0.00 | 0.23 | 0.23 | 83 | 1001.2 |
| 20260507022024 | 18 | 174 | 0.0 | 1.6 | 0.00 | 0.23 | 0.23 | 83 | 1001.3 |
| 20260507021523 | 18 | 189 | 0.0 | 3.2 | 0.00 | 0.23 | 0.23 | 84 | 1001.2 |
| 20260507021026 | 18 | 176 | 0.0 | 3.2 | 0.00 | 0.23 | 0.23 | 84 | 1001.3 |
| 20260507020523 | 18 | 228 | 0.0 | 3.2 | 0.00 | 0.23 | 0.23 | 84 | 1001.5 |
| 20260507020024 | 18 | 234 | 0.0 | 1.6 | 0.00 | 0.23 | 0.23 | 84 | 1001.7 |
| 20260507015523 | 18 | 212 | 0.0 | 1.6 | 0.00 | 0.23 | 0.23 | 84 | 1001.6 |
| 20260507015024 | 18 | 243 | 0.0 | 1.6 | 0.00 | 0.23 | 0.23 | 84 | 1001.7 |
| 20260507014523 | 18 | 243 | 0.0 | 1.6 | 0.00 | 0.23 | 0.23 | 83 | 1001.8 |
| 20260507014023 | 18 | 243 | 0.0 | 1.6 | 0.00 | 0.23 | 0.23 | 83 | 1001.6 |
| 20260507013522 | 18 | 243 | 0.0 | 1.6 | 0.00 | 0.23 | 0.23 | 83 | 1001.9 |
| 20260507013022 | 18 | 237 | 0.0 | 4.8 | 0.00 | 0.23 | 0.23 | 83 | 1002.0 |
| 20260507012522 | 18 | 233 | 0.0 | 4.8 | 0.00 | 0.23 | 0.23 | 83 | 1001.9 |
| 20260507012022 | 18 | 232 | 0.0 | 1.6 | 0.00 | 0.23 | 0.23 | 82 | 1002.0 |
| 20260507011522 | 19 | 232 | 0.0 | 1.6 | 0.00 | 0.23 | 0.23 | 82 | 1001.9 |
| 20260507011021 | 19 | 232 | 0.0 | 1.6 | 0.00 | 0.23 | 0.23 | 82 | 1001.6 |
| 20260507010521 | 19 | 232 | 0.0 | 3.2 | 0.00 | 0.23 | 0.23 | 81 | 1001.4 |
| 20260507010025 | 19 | 224 | 0.0 | 6.4 | 0.00 | 0.23 | 0.23 | 81 | 1001.6 |
| 20260507005522 | 19 | 233 | 1.6 | 8.0 | 0.00 | 0.23 | 0.23 | 81 | 1001.5 |
| 20260507005020 | 19 | 237 | 1.6 | 8.0 | 0.00 | 0.23 | 0.23 | 81 | 1001.5 |
| 20260507004527 | 20 | 218 | 3.2 | 6.4 | 0.00 | 0.23 | 0.23 | 81 | 1001.4 |
| 20260507004021 | 20 | 202 | 0.0 | 6.4 | 0.00 | 0.23 | 0.23 | 80 | 1001.3 |
| 20260507003521 | 20 | 203 | 1.6 | 8.0 | 0.00 | 0.23 | 0.23 | 80 | 1001.4 |
| 20260507003021 | 20 | 237 | 1.6 | 8.0 | 0.00 | 0.23 | 0.23 | 80 | 1001.4 |
| 20260507002520 | 20 | 224 | 3.2 | 8.0 | 0.00 | 0.23 | 0.23 | 80 | 1001.4 |
| 20260507002023 | 20 | 206 | 0.0 | 9.7 | 0.00 | 0.23 | 0.23 | 80 | 1001.5 |
| 20260507001520 | 20 | 186 | 3.2 | 9.7 | 0.00 | 0.23 | 0.23 | 80 | 1001.8 |
| 20260507001019 | 20 | 229 | 3.2 | 16.1 | 0.00 | 0.23 | 0.23 | 79 | 1001.6 |
| 20260507000519 | 20 | 191 | 3.2 | 16.1 | 0.00 | 0.23 | 0.23 | 79 | 1001.4 |
| 20260507000019 | 20 | 228 | 3.2 | 12.9 | 0.00 | 0.23 | 0.23 | 79 | 1001.4 |
| 20260506235519 | 20 | 238 | 1.6 | 14.5 | 0.00 | 0.23 | 0.23 | 79 | 1001.5 |
| 20260506235018 | 20 | 214 | 4.8 | 14.5 | 0.00 | 0.23 | 0.23 | 78 | 1001.2 |
| 20260506234519 | 21 | 228 | 6.4 | 12.9 | 0.00 | 0.23 | 0.23 | 78 | 1001.2 |
| 20260506234018 | 21 | 206 | 3.2 | 8.0 | 0.00 | 0.23 | 0.23 | 78 | 1001.1 |
| 20260506233518 | 21 | 143 | 0.0 | 11.3 | 0.00 | 0.23 | 0.23 | 78 | 1000.9 |
| 20260506233017 | 21 | 194 | 3.2 | 14.5 | 0.00 | 0.23 | 0.23 | 78 | 1000.9 |
| 20260506232515 | 21 | 221 | 4.8 | 17.7 | 0.00 | 0.23 | 0.23 | 78 | 1000.9 |
| 20260506232016 | 20 | 207 | 3.2 | 14.5 | 0.00 | 0.23 | 0.23 | 78 | 1000.9 |
| 20260506231516 | 20 | 226 | 4.8 | 16.1 | 0.00 | 0.23 | 0.23 | 78 | 1000.9 |
| 20260506231016 | 21 | 233 | 8.0 | 16.1 | 0.00 | 0.23 | 0.23 | 78 | 1001.0 |
| 20260506230514 | 21 | 223 | 6.4 | 17.7 | 0.00 | 0.23 | 0.23 | 78 | 1001.0 |
| 20260506230015 | 21 | 200 | 8.0 | 19.3 | 0.00 | 0.23 | 0.23 | 78 | 1000.9 |
| 20260506225516 | 21 | 225 | 6.4 | 19.3 | 0.00 | 0.23 | 0.23 | 77 | 1001.0 |
| 20260506225017 | 21 | 231 | 6.4 | 19.3 | 0.00 | 0.23 | 0.23 | 77 | 1001.1 |
| 20260506224515 | 21 | 225 | 8.0 | 14.5 | 0.00 | 0.23 | 0.23 | 77 | 1001.1 |
| 20260506224014 | 21 | 243 | 6.4 | 19.3 | 0.00 | 0.23 | 0.23 | 77 | 1000.9 |
| 20260506223517 | 21 | 200 | 11.3 | 24.1 | 0.00 | 0.23 | 0.23 | 76 | 1001.1 |
| 20260506223017 | 21 | 154 | 8.0 | 24.1 | 0.00 | 0.23 | 0.23 | 76 | 1001.2 |
| 20260506222514 | 21 | 172 | 6.4 | 22.5 | 0.00 | 0.23 | 0.23 | 76 | 1001.1 |
| 20260506222013 | 21 | 240 | 8.0 | 19.3 | 0.00 | 0.23 | 0.23 | 75 | 1001.2 |
| 20260506221515 | 21 | 212 | 8.0 | 17.7 | 0.00 | 0.23 | 0.23 | 75 | 1000.9 |
| 20260506221013 | 21 | 298 | 8.0 | 19.3 | 0.00 | 0.23 | 0.23 | 75 | 1000.8 |
| 20260506220514 | 21 | 157 | 8.0 | 19.3 | 0.00 | 0.23 | 0.23 | 75 | 1000.8 |
| 20260506220028 | 21 | 224 | 6.4 | 22.5 | 0.00 | 0.23 | 0.23 | 75 | 1001.0 |
| 20260506215514 | 21 | 273 | 9.7 | 22.5 | 0.00 | 0.23 | 0.23 | 75 | 1000.8 |
| 20260506215012 | 21 | 220 | 6.4 | 14.5 | 0.00 | 0.23 | 0.23 | 75 | 1000.8 |
| 20260506214512 | 21 | 229 | 4.8 | 22.5 | 0.00 | 0.23 | 0.23 | 75 | 1000.8 |
| 20260506214012 | 21 | 248 | 12.9 | 24.1 | 0.00 | 0.23 | 0.23 | 75 | 1000.9 |
| 20260506213511 | 21 | 229 | 12.9 | 24.1 | 0.00 | 0.23 | 0.23 | 75 | 1000.9 |
| 20260506213011 | 21 | 217 | 9.7 | 22.5 | 0.00 | 0.23 | 0.23 | 75 | 1000.9 |
| 20260506212514 | 21 | 188 | 9.7 | 27.4 | 0.00 | 0.23 | 0.23 | 75 | 1000.8 |
| 20260506212011 | 21 | 233 | 9.7 | 27.4 | 0.00 | 0.23 | 0.23 | 75 | 1000.7 |
| 20260506211510 | 21 | 214 | 11.3 | 24.1 | 0.00 | 0.23 | 0.23 | 75 | 1000.9 |
| 20260506211011 | 21 | 217 | 8.0 | 24.1 | 0.00 | 0.23 | 0.23 | 76 | 1000.9 |
| 20260506210509 | 21 | 219 | 9.7 | 20.9 | 0.00 | 0.23 | 0.23 | 76 | 1000.9 |
| 20260506210013 | 21 | 216 | 9.7 | 22.5 | 0.00 | 0.23 | 0.23 | 76 | 1000.9 |
| 20260506205510 | 21 | 223 | 11.3 | 22.5 | 0.00 | 0.23 | 0.23 | 76 | 1001.0 |
| 20260506205009 | 21 | 226 | 9.7 | 22.5 | 0.00 | 0.23 | 0.23 | 76 | 1000.8 |
| 20260506204509 | 21 | 219 | 12.9 | 27.4 | 0.00 | 0.23 | 0.23 | 76 | 1000.9 |
| 20260506204012 | 20 | 207 | 11.3 | 27.4 | 0.00 | 0.23 | 0.23 | 76 | 1001.1 |
| 20260506203509 | 20 | 245 | 8.0 | 22.5 | 0.00 | 0.23 | 0.23 | 77 | 1000.9 |
| 20260506203015 | 20 | 283 | 14.5 | 22.5 | 0.00 | 0.23 | 0.23 | 77 | 1001.0 |
| 20260506202508 | 20 | 233 | 8.0 | 22.5 | 0.00 | 0.23 | 0.23 | 77 | 1000.9 |
| 20260506202010 | 20 | 185 | 9.7 | 30.6 | 0.00 | 0.23 | 0.23 | 78 | 1001.1 |
| 20260506201508 | 20 | 259 | 11.3 | 30.6 | 0.00 | 0.23 | 0.23 | 78 | 1001.2 |
| 20260506201007 | 20 | 240 | 14.5 | 29.0 | 0.00 | 0.23 | 0.23 | 78 | 1001.1 |
| 20260506200506 | 20 | 207 | 9.7 | 22.5 | 0.00 | 0.23 | 0.23 | 79 | 1001.0 |
| 20260506200006 | 19 | 160 | 12.9 | 22.5 | 0.00 | 0.23 | 0.23 | 79 | 1001.0 |
| 20260506195505 | 19 | 244 | 9.7 | 22.5 | 0.00 | 0.23 | 0.23 | 79 | 1000.9 |
| 20260506195005 | 19 | 216 | 8.0 | 17.7 | 0.00 | 0.23 | 0.23 | 79 | 1001.0 |
| 20260506194505 | 19 | 233 | 6.4 | 25.7 | 0.00 | 0.23 | 0.23 | 80 | 1001.1 |
| 20260506194005 | 19 | 238 | 4.8 | 25.7 | 0.00 | 0.23 | 0.23 | 80 | 1001.2 |
| 20260506193509 | 19 | 224 | 9.7 | 20.9 | 0.00 | 0.23 | 0.23 | 80 | 1001.3 |
| 20260506193004 | 19 | 198 | 9.7 | 29.0 | 0.00 | 0.23 | 0.23 | 80 | 1001.2 |
| 20260506192503 | 18 | 223 | 12.9 | 29.0 | 0.00 | 0.23 | 0.23 | 80 | 1001.7 |
| 20260506192003 | 18 | 202 | 8.0 | 22.5 | 0.00 | 0.23 | 0.23 | 80 | 1001.5 |
| 20260506191502 | 18 | 230 | 11.3 | 27.4 | 0.00 | 0.23 | 0.23 | 80 | 1001.6 |
| 20260506191002 | 18 | 216 | 11.3 | 22.5 | 0.00 | 0.23 | 0.23 | 80 | 1001.7 |
| 20260506190501 | 18 | 227 | 16.1 | 25.7 | 0.00 | 0.23 | 0.23 | 80 | 1001.9 |
| 20260506190002 | 18 | 251 | 12.9 | 20.9 | 0.00 | 0.23 | 0.23 | 80 | 1001.7 |
| 20260506185501 | 18 | 250 | 11.3 | 25.7 | 0.00 | 0.23 | 0.23 | 80 | 1001.8 |
| 20260506185002 | 18 | 226 | 11.3 | 24.1 | 0.00 | 0.23 | 0.23 | 81 | 1002.0 |
| 20260506184501 | 18 | 229 | 12.9 | 24.1 | 0.00 | 0.23 | 0.23 | 81 | 1002.0 |
| 20260506184100 | 18 | 246 | 14.5 | 24.1 | 0.00 | 0.23 | 0.23 | 81 | 1002.0 |
| 20260506183601 | 18 | 243 | 12.9 | 24.1 | 0.00 | 0.23 | 0.23 | 80 | 1001.8 |
| 20260506183120 | 18 | 159 | 11.3 | 22.5 | 0.00 | 0.23 | 0.23 | 80 | 1001.8 |
| 20260506182600 | 18 | 188 | 11.3 | 24.1 | 0.00 | 0.23 | 0.23 | 81 | 1002.1 |
| 20260506182100 | 18 | 229 | 9.7 | 24.1 | 0.00 | 0.23 | 0.23 | 81 | 1002.1 |
| 20260506181603 | 18 | 233 | 9.7 | 22.5 | 0.00 | 0.23 | 0.23 | 81 | 1002.2 |
| 20260506181059 | 18 | 214 | 9.7 | 30.6 | 0.00 | 0.23 | 0.23 | 81 | 1002.0 |
| 20260506180600 | 18 | 221 | 14.5 | 30.6 | 0.00 | 0.23 | 0.23 | 81 | 1001.9 |
| 20260506180115 | 18 | 213 | 11.3 | 22.5 | 0.00 | 0.23 | 0.23 | 80 | 1001.9 |
| 20260506175600 | 18 | 191 | 4.8 | 19.3 | 0.00 | 0.23 | 0.23 | 81 | 1002.4 |
| 20260506175103 | 18 | 217 | 8.0 | 25.7 | 0.00 | 0.23 | 0.23 | 81 | 1002.1 |
| 20260506174557 | 18 | 240 | 12.9 | 25.7 | 0.00 | 0.23 | 0.23 | 81 | 1002.1 |
| 20260506174058 | 18 | 200 | 11.3 | 25.7 | 0.00 | 0.23 | 0.23 | 82 | 1002.3 |
| 20260506173557 | 18 | 236 | 12.9 | 25.7 | 0.00 | 0.23 | 0.23 | 82 | 1002.1 |
| 20260506173134 | 18 | 203 | 8.0 | 24.1 | 0.00 | 0.23 | 0.23 | 83 | 1002.3 |
| 20260506172557 | 18 | 232 | 11.3 | 24.1 | 0.00 | 0.23 | 0.23 | 83 | 1002.3 |
| 20260506172057 | 18 | 179 | 8.0 | 17.7 | 0.00 | 0.23 | 0.23 | 83 | 1002.2 |
| 20260506171557 | 18 | 244 | 6.4 | 19.3 | 0.00 | 0.23 | 0.23 | 83 | 1002.2 |
| 20260506171056 | 18 | 162 | 9.7 | 19.3 | 0.00 | 0.23 | 0.23 | 83 | 1002.1 |
| 20260506170555 | 18 | 197 | 6.4 | 27.4 | 0.00 | 0.23 | 0.23 | 83 | 1002.1 |
| 20260506170054 | 17 | 227 | 12.9 | 27.4 | 0.00 | 0.23 | 0.23 | 83 | 1002.1 |
| 20260506165554 | 17 | 188 | 8.0 | 17.7 | 0.00 | 0.23 | 0.23 | 84 | 1002.3 |
| 20260506165055 | 17 | 243 | 9.7 | 25.7 | 0.00 | 0.23 | 0.23 | 83 | 1002.3 |
| 20260506164553 | 17 | 244 | 11.3 | 22.5 | 0.00 | 0.23 | 0.23 | 84 | 1002.4 |
| 20260506164053 | 17 | 219 | 11.3 | 24.1 | 0.00 | 0.23 | 0.23 | 84 | 1002.5 |
| 20260506163553 | 17 | 227 | 9.7 | 24.1 | 0.00 | 0.23 | 0.23 | 85 | 1002.4 |
| 20260506163058 | 17 | 209 | 9.7 | 20.9 | 0.00 | 0.23 | 0.23 | 85 | 1002.5 |
| 20260506162555 | 17 | 197 | 8.0 | 20.9 | 0.00 | 0.23 | 0.23 | 85 | 1002.5 |
| 20260506162053 | 17 | 255 | 8.0 | 17.7 | 0.00 | 0.23 | 0.23 | 86 | 1003.3 |
| 20260506161556 | 17 | 238 | 9.7 | 17.7 | 0.00 | 0.23 | 0.23 | 86 | 1002.8 |
| 20260506161052 | 17 | 202 | 6.4 | 16.1 | 0.00 | 0.23 | 0.23 | 87 | 1003.0 |
| 20260506160552 | 16 | 205 | 8.0 | 19.3 | 0.00 | 0.23 | 0.23 | 87 | 1002.6 |
| 20260506160051 | 16 | 179 | 11.3 | 20.9 | 0.03 | 0.23 | 0.23 | 88 | 1002.7 |
| 20260506155554 | 16 | 204 | 9.7 | 20.9 | 0.03 | 0.23 | 0.23 | 88 | 1002.7 |
| 20260506155050 | 16 | 186 | 9.7 | 20.9 | 0.05 | 0.23 | 0.23 | 88 | 1002.7 |
| 20260506154551 | 16 | 203 | 8.0 | 20.9 | 0.05 | 0.23 | 0.23 | 89 | 1002.7 |
| 20260506154050 | 16 | 208 | 6.4 | 17.7 | 0.05 | 0.23 | 0.23 | 89 | 1002.9 |
| 20260506153554 | 16 | 209 | 9.7 | 17.7 | 0.05 | 0.23 | 0.23 | 88 | 1002.8 |
| 20260506153049 | 16 | 245 | 6.4 | 20.9 | 0.05 | 0.23 | 0.23 | 89 | 1002.8 |
| 20260506152548 | 16 | 197 | 9.7 | 20.9 | 0.10 | 0.23 | 0.23 | 89 | 1002.6 |
| 20260506152048 | 16 | 214 | 9.7 | 16.1 | 0.15 | 0.23 | 0.23 | 89 | 1002.6 |
| 20260506151548 | 16 | 205 | 6.4 | 17.7 | 0.15 | 0.23 | 0.23 | 89 | 1002.5 |
| 20260506151046 | 16 | 195 | 9.7 | 17.7 | 0.15 | 0.23 | 0.23 | 89 | 1002.5 |
| 20260506150548 | 16 | 102 | 8.0 | 22.5 | 0.13 | 0.20 | 0.20 | 88 | 1002.8 |
| 20260506150045 | 16 | 228 | 6.4 | 22.5 | 0.13 | 0.20 | 0.20 | 88 | 1003.0 |
| 20260506145544 | 16 | 217 | 6.4 | 19.3 | 0.15 | 0.20 | 0.20 | 88 | 1003.1 |
| 20260506145043 | 16 | 213 | 9.7 | 19.3 | 0.13 | 0.18 | 0.18 | 88 | 1003.2 |
| 20260506144559 | 16 | 207 | 8.0 | 16.1 | 0.13 | 0.18 | 0.18 | 88 | 1003.5 |
| 20260506144043 | 16 | 214 | 6.4 | 16.1 | 0.13 | 0.18 | 0.18 | 87 | 1003.4 |
| 20260506143541 | 16 | 212 | 6.4 | 16.1 | 0.13 | 0.18 | 0.18 | 86 | 1003.5 |
| 20260506143041 | 16 | 214 | 8.0 | 16.1 | 0.10 | 0.15 | 0.15 | 86 | 1003.5 |
| 20260506142541 | 16 | 218 | 4.8 | 14.5 | 0.08 | 0.13 | 0.13 | 86 | 1003.5 |
| 20260506142040 | 16 | 225 | 6.4 | 14.5 | 0.05 | 0.08 | 0.08 | 86 | 1003.4 |
| 20260506141540 | 16 | 221 | 3.2 | 14.5 | 0.05 | 0.08 | 0.08 | 86 | 1003.4 |
| 20260506141040 | 16 | 231 | 3.2 | 14.5 | 0.08 | 0.08 | 0.08 | 86 | 1003.3 |
| 20260506140539 | 16 | 211 | 4.8 | 14.5 | 0.08 | 0.08 | 0.08 | 86 | 1003.2 |
| 20260506140039 | 16 | 226 | 4.8 | 11.3 | 0.08 | 0.08 | 0.08 | 85 | 1003.0 |
| 20260506135538 | 16 | 227 | 3.2 | 16.1 | 0.05 | 0.05 | 0.05 | 85 | 1003.0 |
| 20260506135037 | 16 | 178 | 4.8 | 12.9 | 0.05 | 0.05 | 0.05 | 84 | 1002.9 |